User: anonymous   Login
Location: Holcomb Observatory
(44.4922°N, 73.1654°W)
Time: 04:41:05
(UTC-04:00)
Language:

SL-16 R/B - Orbit

View from above orbital plane
View from above orbital plane
View from above satellite
View from above satellite

Ground track
Ground track

The orbit data is extracted from the following two-line orbital elements,

1 27006U 01056F   16176.04754706 -.00000043  00000-0 -80288-6 0  9992
2 27006  99.2600 323.2671 0014978 160.4930 307.4587 13.70969707727424
Epoch (UTC): 24 June 2016 01:08:28
Eccentricity: 0.0014978
inclination: 99.2600°
perigee height: 985 km
apogee height: 1007 km
right ascension of ascending node: 323.2671°
argument of perigee: 160.4930°
revolutions per day: 13.70969707
mean anomaly at epoch: 307.4587°
orbit number at epoch: 72742

The dashed part of the orbit path shows where the satellite is in the earth's shadow,  

DLR